User: anonymous
Location: Unspecified
(0.0000°N, 0.0000°E)
Time: 14:31:24
(UTC+00:00)
Language:

SES 6 - Orbit

View from above orbital plane
View from above orbital plane
View from above satellite
View from above satellite

Ground track
Ground track

The orbit data is extracted from the following two-line orbital elements,

1 39172U 13026A   14108.20684760 -.00000270  00000-0  00000+0 0  2151
2 39172 000.0277 290.4931 0002093 118.2576 191.4636 01.00271538  3192
Epoch (UTC): 18 April 2014 04:57:51
Eccentricity: 0.0002093
inclination: 0.0277°
perigee height: 35777 km
apogee height: 35795 km
right ascension of ascending node: 290.4931°
argument of perigee: 118.2576°
revolutions per day: 1.00271538
mean anomaly at epoch: 191.4636°
orbit number at epoch: 319

The dashed part of the orbit path shows where the satellite is in the earth's shadow,  

DLR